SCP
0 0 0 0 0 0 0 0 0 0 0 0 0 0 0 0 0 0 0 0 0 0 0 0 0 0 0 0 0 0 0 0 0 0 0 0 0 0 0 0 1 1 1
0 0 0 0 0 0 0 0 0 0 0 0 0 0 0 0 0 0 0 0 0 0 0 0 0 0 0 0 0 0 0 0 0 0 0 0 0 0 0 0 0 1 1
0 0 0 0 0 0 0 0 0 0 0 0 0 0 0 0 0 0 0 0 0 0 0 0 0 0 0 0 0 0 0 0 0 0 0 0 0 0 0 0 0 0 0
0 0 0 0 0 0 0 0 0 0 0 0 0 0 0 0 0 0 0 0 0 0 0 0 0 0 0 0 0 0 0 0 0 0 0 0 0 0 0 0 0 0 0
0 0 0 0 0 0 0 0 0 0 0 0 0 0 0 0 0 0 0 0 0 0 0 0 0 0 0 0 0 0 0 0 0 0 0 0 0 0 0 0 0 0 0
0 0 0 0 0 0 0 0 0 0 0 0 0 0 0 0 0 0 0 0 0 0 0 0 0 0 0 0 0 0 0 0 0 0 0 0 0 0 0 0 0 0 0
0 0 0 0 0 0 0 0 0 0 0 0 0 0 0 0 0 0 0 0 0 0 0 0 0 0 0 0 0 0 0 0 0 0 0 0 0 0 0 0 0 0 0
0 0 0 0 0 0 0 0 0 0 0 0 0 0 0 0 0 0 0 0 0 0 0 0 0 0 0 0 0 0 0 0 0 0 0 0 0 0 0 0 0 0 0
0 0 0 0 0 0 0 0 0 0 0 0 0 0 0 0 0 0 0 0 0 0 0 0 0 0 0 0 0 0 0 0 0 0 0 0 0 0 0 0 0 0 0
0 0 0 0 0 0 0 0 0 0 0 0 0 0 0 0 0 0 0 0 0 0 0 0 0 0 0 0 0 0 0 0 0 0 0 0 0 0 0 0 0 0 0
0 0 0 0 0 0 0 0 0 0 0 0 0 0 0 0 0 0 0 0 0 0 0 0 0 0 0 0 0 0 0 0 0 0 0 0 0 0 0 0 0 0 0
0 0 0 0 0 0 0 0 0 0 0 0 0 0 0 0 0 0 0 0 0 0 0 0 0 0 0 0 0 0 0 0 0 0 0 0 0 0 0 0 0 0 0
0 0 0 0 0 0 0 0 0 0 0 0 0 0 0 0 0 0 0 0 0 0 0 0 0 0 0 0 0 0 0 0 0 0 0 0 0 0 0 0 0 0 0
0 0 0 0 0 0 0 0 0 0 0 0 0 0 0 0 0 0 0 0 0 0 0 0 0 0 0 0 0 0 0 0 0 0 0 0 0 0 0 0 0 0 0
0 0 0 0 0 0 0 0 0 0 0 0 0 0 0 0 0 0 0 0 0 0 0 0 0 0 0 0 0 0 0 0 0 0 0 0 0 0 0 0 0 0 0
0 0 0 0 0 0 0 0 0 0 0 0 0 0 0 0 0 0 0 0 0 0 0 0 0 0 0 0 0 0 0 0 0 0 0 0 0 0 0 0 0 0 0
0 0 0 0 0 0 0 0 0 0 0 0 0 0 0 0 0 0 0 0 0 0 0 0 0 0 0 0 0 0 0 0 0 0 0 0 0 0 0 0 0 0 0
0 0 0 0 0 0 0 0 0 0 0 0 0 0 0 0 0 0 0 0 0 0 0 0 0 0 0 0 0 0 0 0 0 0 0 0 0 0 0 0 0 0 0
0 0 0 0 0 0 0 0 0 0 0 0 0 0 0 0 0 0 0 0 0 0 0 0 0 0 0 0 0 0 0 0 0 0 0 0 0 0 0 0 0 0 0
0 0 0 0 0 0 0 0 0 0 0 0 0 0 0 0 0 0 0 0 0 0 0 0 0 0 0 0 0 0 0 0 0 0 0 0 0 0 0 0 0 0 0
0 0 0 0 0 0 0 0 0 0 0 0 0 0 0 0 0 0 0 0 0 0 0 0 0 0 0 0 0 0 0 0 0 0 0 0 0 0 0 0 0 0 0
0 0 0 0 0 0 0 0 0 0 0 0 0 0 0 0 0 0 0 0 0 0 0 0 0 0 0 0 0 0 0 0 0 0 0 0 0 0 0 0 0 0 0
0 0 0 0 0 0 0 0 0 0 0 0 0 0 0 0 0 0 0 0 0 0 0 0 0 0 0 0 0 0 0 0 0 0 0 0 0 0 0 0 0 0 0
0 0 0 0 0 0 0 0 0 0 0 0 0 0 0 0 0 0 0 0 0 0 0 0 0 0 0 0 0 0 0 0 0 0 0 0 0 0 0 0 0 0 0
0 0 0 0 0 0 0 0 0 0 0 0 0 0 0 0 0 0 0 0 0 0 0 0 0 0 0 0 0 0 0 0 0 0 0 0 0 0 0 0 0 0 0
0 0 0 0 0 0 0 0 0 0 0 0 0 0 0 0 0 0 0 0 0 0 0 0 0 0 0 0 0 0 0 0 0 0 0 0 0 0 0 0 0 0 0
Wind_Speed
7 7 6 6 6 5 5 5 5 4 3 3 3 2 2 2 1 1 1 1 0 1 1 0 1 0 0 1 1 1 1 1 2 1 1 1 1 2 2 2 1 0 0
7 6 7 6 5 5 6 6 5 4 4 4 3 3 3 2 2 2 2 1 1 1 1 1 1 0 0 0 0 0 0 1 2 1 1 2 2 1 1 1 1 1 1
6 7 7 6 7 7 7 6 5 5 4 4 3 4 4 3 3 3 3 2 2 2 2 2 2 1 1 1 1 0 0 1 1 1 0 1 1 1 1 2 2 2 2
6 7 8 9 9 9 7 6 6 5 5 5 5 5 4 4 3 3 3 3 3 3 2 2 2 3 3 2 1 1 1 1 1 1 0 1 1 1 1 1 2 2 2
5 8 9 8 7 7 7 7 6 6 6 5 5 4 4 4 4 5 4 4 3 3 3 3 3 4 5 4 3 2 2 2 1 1 0 0 1 1 0 0 0 1 2
5 8 7 6 7 7 8 7 6 6 6 5 6 5 5 5 7 9 7 4 4 4 4 3 4 4 5 6 6 5 5 4 3 2 1 2 2 1 1 1 1 1 1
5 6 5 6 7 8 8 7 8 8 7 7 7 6 6 7 9 9 10 6 5 5 5 4 3 3 4 2 3 4 4 5 6 4 3 3 3 3 2 1 1 1 1
4 5 5 5 7 7 7 9 9 7 7 8 8 8 7 8 11 10 10 6 5 5 5 5 5 4 4 4 3 2 2 2 4 3 4 4 3 3 3 2 2 1 1
4 5 6 6 7 6 8 10 9 7 8 8 7 8 8 9 11 11 9 5 4 5 5 5 5 5 8 7 5 4 2 2 2 4 5 3 2 3 4 2 2 1 0
7 7 6 6 7 8 9 9 7 8 9 8 8 8 9 9 10 12 11 5 5 4 4 4 8 8 9 8 6 5 5 4 2 2 1 1 1 1 2 3 3 2 1
8 7 6 6 7 8 8 6 6 7 7 8 8 8 8 9 10 12 12 6 6 5 4 4 5 9 9 9 8 6 7 5 3 3 2 1 1 1 1 1 2 2 2
8 8 7 7 7 6 6 6 5 6 8 8 7 7 6 7 9 10 13 13 10 6 6 5 5 8 8 8 6 7 8 6 3 3 2 1 1 1 1 1 2 2 1
9 9 8 8 6 6 6 6 5 5 6 7 7 8 7 6 7 12 13 14 14 8 5 8 8 8 7 5 6 8 6 4 4 3 3 2 1 1 1 1 2 2 2
10 10 8 7 7 6 5 5 5 6 7 7 8 8 7 6 6 6 6 7 10 8 5 6 8 7 5 4 4 3 3 4 4 4 3 2 2 2 2 1 1 1 2
10 9 8 7 7 6 6 6 7 8 9 10 9 8 8 9 12 14 10 8 7 7 7 4 3 3 3 3 2 2 3 3 3 3 3 3 3 2 2 1 2 2 2
9 9 7 7 6 6 6 7 9 10 12 14 14 12 10 12 12 16 17 15 15 16 9 5 6 6 6 6 5 4 3 4 4 4 4 4 4 3 3 2 2 2 2
9 10 8 7 7 7 6 6 7 8 9 11 14 15 14 13 14 16 17 16 16 17 7 7 7 7 7 6 6 5 5 4 4 4 5 4 4 4 3 3 2 2 2
9 11 10 8 7 7 7 7 6 6 7 6 8 13 14 15 15 16 15 12 9 10 6 7 8 8 7 7 7 5 5 5 4 5 5 4 4 4 4 3 3 2 2
9 8 8 8 7 8 7 7 7 7 7 6 5 6 10 11 12 14 16 9 10 10 8 7 7 7 7 7 7 6 6 6 6 5 5 5 5 4 4 4 3 3 2
8 15 15 9 8 7 7 7 7 7 7 6 7 6 5 5 6 9 10 8 9 9 9 9 8 8 8 8 7 7 7 6 7 5 5 5 5 5 5 5 4 3 2
7 10 17 11 8 8 7 7 7 7 7 8 8 7 11 9 9 11 10 10 10 10 10 9 8 9 8 8 8 9 9 7 7 7 6 6 6 5 4 4 4 3 3
7 8 8 9 9 8 8 8 7 8 8 9 7 6 13 9 8 8 9 9 9 8 8 9 9 9 9 10 10 10 9 8 8 7 7 6 6 5 5 4 4 3 3
7 9 9 9 9 11 10 8 8 8 8 8 7 6 8 9 8 8 9 8 7 7 7 8 9 8 7 8 9 10 10 10 9 9 9 7 6 6 5 5 5 4 3
8 9 10 9 9 9 9 9 8 8 8 8 7 7 8 9 8 9 8 7 8 8 8 8 9 12 13 10 7 7 7 9 9 9 11 9 8 6 5 5 4 4 3
7 9 9 9 9 9 9 9 9 8 8 8 7 7 7 7 8 8 7 8 9 9 10 9 8 11 15 14 11 9 13 16 13 9 8 8 8 7 6 6 4 4 3
8 9 9 9 9 9 9 9 9 9 8 8 7 7 7 7 7 7 8 8 9 9 10 9 11 13 15 13 14 16 18 17 16 15 9 7 8 7 6 5 5 4 4
Wind_Direction
207 208 209 208 205 202 209 220 221 222 222 227 230 233 235 235 234 240 258 258 238 311 327 18 336 9 30 19 53 81 109 138 152 283 315 324 2 20 11 12 24 62 315
208 206 215 211 200 205 217 223 216 219 222 220 218 220 228 225 218 226 249 236 219 245 267 261 280 277 40 10 64 102 141 154 151 169 348 358 5 352 10 17 357 16 355
205 206 212 211 207 214 219 219 214 215 220 218 208 214 223 223 222 227 226 226 224 232 233 230 245 199 227 236 216 197 183 108 123 146 27 359 355 352 24 18 8 359 347
209 209 215 216 215 217 215 213 212 210 212 214 211 216 220 220 220 223 218 218 225 234 229 224 223 212 217 212 209 207 160 110 102 113 109 2 347 342 46 26 4 4 347
217 218 224 223 219 217 215 213 211 210 213 211 211 218 222 219 219 213 213 213 218 232 240 236 234 230 223 209 195 188 163 145 133 138 183 357 324 3 19 342 357 338 335
229 232 230 223 218 217 218 214 210 213 214 208 211 214 221 227 229 218 204 205 210 218 235 246 248 245 243 232 218 196 182 174 176 173 191 199 228 222 199 172 155 41 325
244 245 235 224 224 223 219 212 214 213 208 210 214 212 222 234 237 228 212 196 204 215 224 232 241 229 221 213 222 207 206 208 192 175 187 211 210 206 179 178 184 184 235
261 260 244 231 233 229 218 219 221 213 208 212 215 213 219 233 234 230 217 198 206 218 220 219 223 235 221 199 188 188 211 229 213 195 197 213 215 200 185 177 174 179 284
284 274 261 239 236 230 227 229 222 212 213 212 211 208 213 230 229 224 209 191 210 225 226 219 216 224 232 205 181 189 208 243 223 196 196 199 198 191 170 140 140 132 321
292 281 276 256 240 236 234 234 225 215 219 214 217 212 211 220 223 218 203 188 206 222 225 225 222 220 224 200 185 185 198 214 177 150 128 70 65 105 164 167 168 165 179
301 291 281 269 252 244 240 239 229 219 217 215 218 218 214 218 222 218 203 190 201 207 213 218 222 219 213 203 191 193 204 187 163 156 139 110 78 70 78 132 159 167 171
308 295 284 275 267 260 245 242 231 217 216 218 219 225 222 219 217 220 213 204 196 194 208 210 210 203 199 195 192 197 191 167 144 141 137 139 133 123 79 88 111 114 123
319 304 292 287 274 263 247 241 235 218 218 221 216 223 226 216 217 218 214 209 200 194 203 198 192 188 183 185 187 184 174 159 152 155 168 177 174 157 110 83 65 78 75
319 312 300 292 287 274 259 243 232 224 223 223 221 224 223 213 211 207 206 204 197 194 188 182 173 169 159 154 156 166 166 168 167 167 165 153 129 117 100 98 98 82 78
315 312 308 294 285 276 263 249 242 235 225 220 223 219 213 219 217 200 189 192 187 182 156 139 143 150 161 158 149 145 148 152 156 150 146 144 139 127 107 91 103 91 96
315 313 309 302 293 281 276 282 265 255 252 241 230 220 224 223 208 196 196 193 183 168 154 166 178 181 182 181 176 171 168 169 165 156 153 153 151 145 130 104 97 108 113
306 306 304 301 297 288 277 271 283 288 268 252 240 228 224 216 204 196 194 189 180 169 171 181 184 186 186 181 179 177 179 176 163 158 157 156 150 143 134 128 120 112 112
303 304 304 294 290 284 275 268 263 266 275 273 250 234 227 217 205 197 184 165 177 183 189 186 188 186 182 180 179 177 169 160 158 159 156 154 152 145 142 142 140 139 137
303 299 296 291 285 281 277 273 267 260 260 265 267 244 226 215 203 192 173 179 186 192 194 191 187 182 180 178 175 172 167 166 164 160 158 157 154 146 146 148 146 143 136
300 306 310 300 290 285 278 274 271 265 261 256 248 235 200 186 194 191 193 196 193 192 190 190 187 182 178 174 170 167 164 163 162 160 160 158 155 152 154 155 155 153 157
293 300 307 306 292 283 276 271 269 266 260 256 251 230 202 204 207 202 199 200 198 194 190 186 181 178 175 169 167 167 167 167 166 162 159 158 155 152 153 153 154 152 149
287 290 292 292 291 288 282 275 271 267 264 261 259 236 212 213 214 209 205 204 200 193 184 178 177 177 175 173 170 168 167 166 165 162 158 156 153 151 149 148 149 151 155
284 289 292 290 289 288 286 277 272 269 266 263 254 235 216 216 216 213 207 198 187 181 175 173 171 170 170 169 169 168 169 170 168 162 157 156 155 156 154 156 159 159 168
281 285 288 288 289 286 282 279 273 271 269 262 252 239 226 217 215 211 202 188 179 175 173 173 172 170 165 162 161 161 158 154 153 156 155 155 156 155 154 156 162 166 168
279 284 285 284 285 286 284 280 275 270 268 263 252 243 232 221 213 204 191 182 177 175 173 170 167 165 164 160 157 156 154 150 148 147 147 149 153 155 155 159 163 163 167
279 282 284 281 280 281 281 279 276 271 267 264 254 242 230 218 209 198 183 176 174 172 169 166 164 161 159 158 155 153 151 150 149 147 145 146 150 154 154 157 163 165 169